Weather History for Sandspit, BC

Change the Weather History Date:

Friday, September 20, 2013

  Actual Average Record
Temperature  
Mean Temperature 58 °F -  
Max Temperature 62 °F 56 °F 67 °F (2014)
Min Temperature 53 °F 47 °F 44 °F (1996)
Degree Days  
Heating Degree Days 8    
Growing Degree Days 8 (Base 50)    
Moisture  
Dew Point 53 °F    
Average Humidity 82    
Maximum Humidity 94    
Minimum Humidity 63    
Precipitation  
Precipitation 0.02 in 0.37 in - ()
Sea Level Pressure  
Sea Level Pressure 29.36 in    
Wind  
Wind Speed 16 mph ()    
Max Wind Speed 32 mph    
Max Gust Speed 41 mph    
Averages and records for this station are not official NWS values.
T = Trace of Precipitation, MM = Missing Value Source: Averaged Metar Reports

Daily Weather History Graph

Daily Weather History Graph

Search for Another Location

Airport:

Trip Planner

Search our weather history database for the weather conditions in past years. The results will help you decide how hot, cold, wet, or windy it might be!

Date:

Astronomy

Sep. 20, 2013 Rise Set
Actual Time 7:30 AM PDT 7:49 PM PDT
Civil Twilight 6:55 AM PDT 8:24 PM PDT
Nautical Twilight 6:14 AM PDT 9:05 PM PDT
Astronomical Twilight 5:30 AM PDT 9:48 PM PDT
Moon 8:06 PM PDT (9/20) 9:10 AM PDT (9/20)
Length of Visible Light 13h 28m
Length of Day
12h 19m
Full, 98% of the Moon is Illuminated
Sep 20
Full
Sep 26
Last Quarter
Oct 4
New
Oct 11
First Quarter
Oct 18
Full

Hourly Weather History & Observations

Time (PDT) Temp. Dew Point Humidity Pressure Visibility Wind Dir Wind Speed Gust Speed Precip Events Conditions
12:00 AM 57.2 °F 55.4 °F 94% 29.11 in - SE 32.2 mph 41.4 mph N/A   Overcast
1:00 AM 55.4 °F 53.6 °F 94% 29.12 in - SE 32.2 mph 41.4 mph N/A   Scattered Clouds
2:00 AM 56 °F 54 °F 92% 29.13 in - SSE 21.9 mph - -  
2:00 AM 55.4 °F 53.6 °F 94% 29.14 in - SE 31.1 mph 38.0 mph N/A   Overcast
3:00 AM 57.2 °F 53.6 °F 88% 29.17 in - South 8.1 mph - N/A   Mostly Cloudy
4:00 AM 57.2 °F 51.8 °F 82% 29.19 in - SE 15.0 mph 23.0 mph N/A   Overcast
5:00 AM 57 °F 53 °F 81% 29.20 in - SE 16.1 mph - -  
5:00 AM 57.2 °F 53.6 °F 88% 29.21 in - SE 24.2 mph - N/A   Overcast
6:00 AM 57.2 °F 53.6 °F 88% 29.23 in - SE 18.4 mph 24.2 mph N/A   Overcast
7:00 AM 55.4 °F 53.6 °F 94% 29.25 in - SE 21.9 mph 28.8 mph N/A   Overcast
8:00 AM 56 °F 54 °F 89% 29.27 in - South 9.2 mph - -  
8:00 AM 55.4 °F 53.6 °F 94% 29.28 in - South 13.8 mph - N/A   Overcast
9:00 AM 57.2 °F 53.6 °F 88% 29.31 in - SSE 13.8 mph - N/A   Mostly Cloudy
10:00 AM 57.2 °F 55.4 °F 94% 29.35 in - SSE 12.7 mph - N/A   Mostly Cloudy
11:00 AM 61 °F 55 °F 74% 29.37 in - SSE 10.4 mph - -  
11:00 AM 60.8 °F 55.4 °F 82% 29.37 in - SSE 13.8 mph 19.6 mph N/A   Partly Cloudy
12:00 PM 59.0 °F 51.8 °F 77% 29.41 in - SSW 13.8 mph 20.7 mph N/A   Overcast
1:00 PM 60.8 °F 53.6 °F 77% 29.44 in - SSW 11.5 mph - N/A   Partly Cloudy
2:00 PM 62 °F 55 °F 71% 29.46 in - West 5.8 mph - -  
2:00 PM 60.8 °F 53.6 °F 77% 29.47 in - West 13.8 mph - N/A   Mostly Cloudy
2:43 PM 60.8 °F 50.0 °F 68% 29.48 in - SSW 12.7 mph - N/A   Mostly Cloudy
3:00 PM 62.6 °F 50.0 °F 63% 29.49 in - SW 11.5 mph 18.4 mph N/A   Partly Cloudy
4:00 PM 62.6 °F 51.8 °F 68% 29.51 in - SW 10.4 mph - N/A   Mostly Cloudy
5:00 PM 60.8 °F 51.8 °F 72% 29.52 in - WSW 6.9 mph - N/A   Overcast
5:32 PM 59.0 °F 50.0 °F 72% 29.52 in - SSW 12.7 mph - N/A   Mostly Cloudy
6:00 PM 60.8 °F 50.0 °F 68% 29.53 in - WSW 8.1 mph - N/A   Partly Cloudy
7:00 PM 57.2 °F 51.8 °F 82% 29.53 in - West 9.2 mph - N/A   Partly Cloudy
8:00 PM 55.4 °F 50.0 °F 82% 29.55 in - Calm Calm - N/A   Overcast
9:00 PM 53.6 °F 50.0 °F 88% 29.55 in - SSW 4.6 mph - N/A   Overcast
10:00 PM 55.4 °F 50.0 °F 82% 29.55 in - West 6.9 mph - N/A   Overcast
11:00 PM 55.4 °F 50.0 °F 82% 29.55 in - South 3.5 mph - N/A   Overcast